Location: Helion Bumpstead
(52.0500°N, 0.4000°E)
Time: 21:27:27
(UTC+00:00)

Cosmos 1725 Rocket - Pass Details

Date: 19 February 2026
Orbit: 962 x 989 km, 82.9° (Epoch: 11 March)

Event Time Altitude Azimuth Distance (km) Brightness Sun altitude
Rises 05:47:59 0° 179° (S) 3,634 7.0 -12.6°
Reaches altitude 10° 05:50:28 10° 177° (S) 2,692 6.4 -12.2°
Maximum altitude 05:56:35 69° 95° (E) 1,030 4.4 -11.3°
Drops below altitude 10° 06:02:45 10° 14° (NNE) 2,722 6.5 -10.3°
Sets 06:05:17 0° 12° (NNE) 3,676 7.1 -9.9°
